User: anonymous   Login
Location: Unspecified
(0.0000°N, 0.0000°E)
Time: 03:04:54
(UTC+00:00)
Language:

NOSS 2-1 (D) - Orbit

View from above orbital plane
View from above orbital plane
View from above satellite
View from above satellite

Ground track
Ground track

The orbit data is extracted from the following two-line orbital elements,

1 20692U 90050D   18111.12224038 0.00000060  00000-0  12977-4 0    06
2 20692  63.3330 115.2164 0819581  35.0821 324.9179 13.41787220    00
Epoch (UTC): 21 April 2018 02:56:01
Eccentricity: 0.0819581
inclination: 63.3330°
perigee height: 489 km
apogee height: 1716 km
right ascension of ascending node: 115.2164°
argument of perigee: 35.0821°
revolutions per day: 13.41787220
mean anomaly at epoch: 324.9179°
orbit number at epoch: 0

The dashed part of the orbit path shows where the satellite is in the earth's shadow,  

DLR